If you wish to contribute or participate in the discussions about articles you are invited to join SKYbrary as a registered user

 Actions

Ain Arnat Airport

From SKYbrary Wiki

DAAS
Airport
ICAO: DAAS – IATA: QSF
Summary
Name Ain Arnat Airport
Region Africa
Territory Algeria DZ.gif
Location , Setif
Serving Setif
Elevation 1,024.128 m
3,360 ft
3,360 ft1,024.128 m
Type medium airport
Coordinates 36° 10' 41.16" N, 5° 19' 28.16" E
Runways
Designator Length Width Surface ROPS


METAR
Observation DAAS 111000Z 34008KT 7000 FEW010 BKN026 FEW030CB 05/02 Q1015
Station Setif
Date/Time 11 April 2019 10:00:00
Wind direction 340°
Wind speed 08 kts
Lowest cloud amount few clouds
Temperature 5°C
Dew point 2°C
Humidity 80%
QNH 1015 hPa
Weather condition n/a